{"data":{"norad_id":40115,"intl_designator":"2014-048A","name":"WORLDVIEW-3 (WV-3)","alt_names":[],"object_type":"PAYLOAD","status":"ACTIVE","operator":null,"country":"US","launch_date":"2014-08-13","launch_site_code":"AFWTR","launch_vehicle":null,"mission":null,"orbit_class":"UNKNOWN","rcs_meters":6.222,"size_class":null,"mass_kg":null,"dimensions":null,"purposes":["earth_obs"],"wikipedia_slug":null,"has_3d_model":false,"image_url":null,"decayed_at":null,"tle_current":{"epoch":"2026-05-25T04:34:06.740256Z","epoch_age_seconds":68979,"freshness":"FRESH","line1":"1 40115U 14048A   26145.19035579  .00000756  00000+0  94982-4 0  9998","line2":"2 40115  97.8568 220.3408 0002444  62.1505 297.9957 14.84976804638497","mean_motion":14.84976804,"eccentricity":0.0002444,"inclination_deg":97.8568,"raan_deg":220.3408,"arg_perigee_deg":62.1505,"mean_anomaly_deg":297.9957,"bstar":9.4982e-5,"rev_number":63849,"period_min":96.971211679614,"perigee_km":611.94987869199,"apogee_km":615.36746841723,"semimajor_km":6991.7956735546,"source":"CELESTRAK","updated_at":"2026-05-25T13:38:12.785878Z"}}}